Location: Beekmeers
(50.8953°N, 3.6968°E)
Time: 13:33:32
(UTC+00:00)

SL-8 R/B - Pass Details

Date: 23 May 2024
Orbit: 652 x 662 km, 48.4° (Epoch: 16 June)

Event Time Altitude Azimuth Distance (km) Brightness Sun altitude
Rises 00:57:19 0° 279° (W) 2,976 7.0 -16.6°
Reaches altitude 10° 00:59:46 10° 272° (W) 2,065 6.1 -16.4°
Maximum altitude 01:04:13 41° 203° (SSW) 957 4.0 -16.2°
Drops below altitude 10° 01:08:40 10° 134° (SE) 2,065 6.0 -16.0°
Sets 01:11:07 0° 127° (SE) 2,976 6.9 -15.8°
